Tracking 28794 objects as of 22-Apr-2024
HD Live streaming from Space Station
objects crossing your sky now

COSMOS 1388

Track COSMOS 1388 now!
10-day predictions
COSMOS 1388 is classified as:


NORAD ID: 13375
Int'l Code: 1982-073A
Perigee: 1,399.4 km
Apogee: 1,481.5 km
Inclination: 74.0 °
Period: 114.5 minutes
Semi major axis: 7811 km
RCS: 0.6948 m2 (medium)
Launch date: July 21, 1982
Source: Commonwealth of Independent States (former USSR) (CIS)
Launch site: PLESETSK MISSILE AND SPACE COMPLEX (PKMTR)
Your satellite tracking list
Your tracking list is empty




NASA's NSSDC Master Catalog

Two Line Element Set (TLE):
1 13375U 82073A   24112.86905546  .00000018  00000-0  20435-3 0  9998
2 13375  74.0185 359.0102 0052539 277.8607 157.6107 12.57486978916704
Source of the keplerian elements: AFSPC